Погода в Краснокаменке

Россия / Республика Крым     44°33′46″N   34°17′22″E
темп.,
°C
ветер,
м/с
пор.,
м/с
влажн.,
%
обл.,
%
осадки,
мм/ч
давл.,
гПа
погр.,
м
13 мая, чт
чт1300:00+11ссз11775 0.0 101286
03:00+11св22761 0.0 101279
06:00+11св337360 0.0 1012134
09:00+14всв4466100 0.0 1012208
12:00+14всв456415 0.0 1012248
15:00+15всв345714 0.0 1011241
18:00+15св44520 0.0 1010107
21:00+14ссв34520 0.0 101019
14 мая, пт
пт1400:00+16с234660 0.0 100912
03:00+15зюз1251100 0.0 101011
06:00+16зюз334697 0.0 100914
09:00+17зюз345756 0.0 1010141
12:00+19зюз58525 0.0 1010608
15:00+20зюз695398 0.0 1010656
18:00+19зсз345820 0.0 1011168
21:00+16зсз2171100 0.0 101213
15 мая, сб
сб1500:00+16зсз33679 0.0 101316
03:00+15ссз55675 0.0 101328
06:00+16ссв2363100 0.0 101419
09:00+16всв3473100 0.0 1015204
12:00+16вюв1268100 0.0 1015304
15:00+16в2269100 0.0 1014467
18:00+17св22637 0.0 1013191
21:00+16с3371100 0.0 101314
16 мая, вс
вс1600:00+16с5468100 0.0 101221
03:00+16с5562100 0.0 101028
06:00+17с566599 0.0 100945
09:00+18св577097 0.0 1009213
12:00+17юв1283100 0.5 1008340
15:00+17зюз1374100 0.6 1007365
18:00+19всв127079 0.0 1005138
21:00+17ссв4580100 0.1 100640
17 мая, пн
пн1700:00+18с668491 3.3 100457
03:00+16зсз448817 6.6 100332
06:00+17с338398 0.8 100414
09:00+17зюз118765 1.2 1004112
12:00+19сз118584 1.0 1005299
15:00+18ссз128443 2.8 1006247
18:00+18ссз45756 1.1 1007170
21:00+15сз55782 1.2 100952